Location: Newark
(49.3000°N, 9.4667°E)
Time: 17:54:18
(UTC+00:00)

Transit 2A Rocket - Pass Details

Date: 27 May 2019
Orbit: 587 x 917 km, 66.7° (Epoch: 24 June)

Event Time Altitude Azimuth Distance (km) Brightness Sun altitude
Rises 00:37:15 0° 322° (NW) 3,444 8.9 -17.4°
Reaches altitude 10° 00:39:50 10° 321° (NW) 2,460 8.0 -17.2°
Maximum altitude 00:45:28 70° 239° (WSW) 834 5.0 -16.9°
Enters shadow 00:49:18 18° 158° (SSE) 1,761 6.5 -16.7°
